User: anonymous   Login
Location: Unspecified
(0.0000°N, 0.0000°E)
Time: 20:20:49
(UTC+00:00)
Language:

SR - Orbit

View from above orbital plane
View from above orbital plane
View from above satellite
View from above satellite

Ground track
Ground track

The orbit data is extracted from the following two-line orbital elements,

1 00046U 60007B   15024.23855824  .00000216  00000-0  67100-4 0  8347
2 00046 066.6929 330.2761 0210103 161.8593 199.0161 14.48223610853512
Epoch (UTC): 24 January 2015 05:43:31
Eccentricity: 0.0210103
inclination: 66.6929°
perigee height: 582 km
apogee height: 881 km
right ascension of ascending node: 330.2761°
argument of perigee: 161.8593°
revolutions per day: 14.48223610
mean anomaly at epoch: 199.0161°
orbit number at epoch: 85351

The dashed part of the orbit path shows where the satellite is in the earth's shadow,  

DLR